Wind_Speed
15 16 16 18 19 20 21 22 24 24 24 24 23 22 22 20 19 19 18 16 15 14 13 12 11 11 10 10 10 9 9 9 9 10 11 11 12 13 13 14 14 15 16 16 17 17 18 18 19
16 17 17 17 17 16 18 20 22 23 24 24 24 23 23 21 20 19 18 17 16 15 14 13 12 11 11 11 10 10 10 10 11 11 12 12 12 13 14 15 15 16 17 18 18 19 19 20 20
18 18 17 16 15 14 16 19 21 22 23 23 23 23 23 21 20 20 19 18 17 15 14 13 13 12 11 11 10 10 10 11 11 12 12 13 13 14 14 15 16 17 18 19 20 20 20 20 21
20 19 18 17 15 14 16 18 20 21 21 22 23 22 22 21 20 20 19 18 17 16 15 14 13 12 11 11 10 10 11 11 12 12 13 13 14 14 15 16 17 18 19 20 20 20 21 21 22
22 21 19 17 15 15 16 17 19 20 21 21 22 21 21 21 20 19 18 17 16 16 15 14 13 12 12 11 11 11 12 12 13 13 13 14 14 15 16 17 18 18 19 20 20 21 22 23 24
24 23 20 18 17 16 16 17 18 19 20 20 21 21 20 20 20 19 18 17 16 16 15 14 13 13 12 12 12 12 12 12 13 13 13 14 15 16 17 18 18 19 20 21 22 23 24 25 26
26 25 22 21 19 18 17 17 18 18 19 20 20 20 20 20 19 18 18 17 17 16 15 14 13 13 12 12 12 12 13 13 13 14 14 15 16 17 18 19 20 21 22 23 24 25 25 26 27
29 27 25 23 21 19 19 18 18 19 19 20 21 20 20 20 19 18 18 17 17 16 15 15 14 14 13 13 13 13 13 13 14 15 16 17 17 18 19 20 21 22 23 24 25 26 26 27 28
32 30 26 24 24 22 21 20 19 19 19 20 20 20 21 20 20 19 18 17 17 16 16 15 15 15 14 14 14 13 13 14 15 16 17 18 19 20 21 21 23 24 25 26 26 27 28 29 29
35 32 28 27 26 25 23 22 21 20 20 21 21 21 22 21 20 19 18 18 17 17 17 16 16 16 15 14 14 14 15 16 16 17 18 19 20 21 22 23 24 25 26 27 28 29 29 30 31
38 34 31 30 29 28 26 25 23 22 22 21 22 22 22 22 21 20 20 19 18 18 17 17 17 16 16 15 15 16 17 17 18 18 19 20 21 22 23 25 25 27 28 29 30 30 31 32 32
40 36 35 33 33 31 29 28 26 24 23 23 23 23 23 22 22 21 20 20 19 19 18 18 17 17 17 17 17 17 18 18 19 20 21 22 23 24 25 26 27 28 29 30 31 32 33 33 34
43 39 38 37 36 34 32 30 28 26 25 25 25 25 24 23 23 23 22 21 20 20 19 19 18 18 18 18 18 19 19 20 20 21 22 24 25 26 27 28 29 30 31 32 33 34 35 35 36
45 43 42 41 39 37 35 33 31 28 28 27 26 25 25 24 24 24 23 22 22 21 21 20 20 19 19 19 20 21 21 21 22 23 24 26 27 28 29 30 31 32 33 34 35 35 36 37 37
48 47 45 44 42 40 39 37 33 31 31 29 28 27 26 26 25 25 24 24 23 23 22 22 21 21 21 21 22 22 23 24 25 26 27 28 29 30 31 32 33 34 34 35 36 36 37 38 38
50 50 49 45 44 42 42 38 34 34 33 31 30 28 27 26 26 26 25 25 24 24 24 23 23 23 23 23 24 25 26 26 27 28 29 30 31 32 33 34 34 35 36 36 37 37 38 39 39
53 52 49 46 45 44 44 39 36 37 36 34 32 31 29 28 27 27 26 26 26 25 25 25 25 25 25 25 26 27 28 28 29 30 31 32 33 34 35 35 36 36 37 37 38 38 39 39 40
53 51 49 48 46 46 45 42 40 39 38 36 35 33 32 30 29 28 28 27 27 27 26 26 27 27 27 27 28 29 30 31 31 32 33 34 35 35 35 36 37 37 38 38 38 39 40 40 40
51 50 49 48 48 48 47 45 43 42 41 39 37 36 34 32 31 30 29 29 28 28 28 28 28 29 29 30 30 31 32 32 33 34 35 35 36 36 37 37 37 38 38 39 39 39 40 40 40
53 52 51 50 49 50 49 47 46 45 42 40 39 37 36 34 33 32 31 31 30 30 30 30 30 31 31 32 32 33 33 33 34 36 36 37 37 37 37 38 38 38 38 39 39 40 40 40 40
54 52 50 49 49 50 50 50 47 46 44 42 41 39 38 36 35 34 33 33 32 31 31 31 31 32 33 33 34 34 34 35 36 37 37 37 37 37 38 38 39 39 39 39 39 39 39 40 40
52 49 48 49 50 50 51 52 48 47 45 44 42 41 39 38 37 36 35 34 33 33 33 33 33 33 34 34 34 34 35 36 37 37 37 37 37 38 38 39 39 38 38 39 39 39 39 40 40
49 48 48 48 50 52 51 53 50 48 46 44 42 41 40 39 38 37 36 35 34 34 34 34 34 34 34 35 35 35 36 36 37 37 37 37 38 38 38 38 38 38 38 38 39 39 39 40 40
50 49 49 49 51 54 52 53 51 47 45 43 41 40 40 39 38 37 37 36 35 35 35 35 35 35 35 35 36 36 36 37 37 37 37 37 38 37 37 37 38 38 38 38 39 39 39 40 41
52 51 51 51 53 54 50 52 51 44 42 41 40 40 39 39 39 38 37 37 36 36 36 36 36 36 36 36 36 37 37 37 37 37 37 37 37 37 37 37 37 37 38 38 38 39 39 40 41
54 53 52 52 52 51 50 51 48 43 40 40 39 39 38 38 38 38 37 37 36 36 36 36 36 36 36 36 36 36 36 36 36 36 36 36 36 36 37 37 37 37 38 38 38 39 39 41 42
55 55 52 51 52 50 50 48 45 41 39 37 37 37 37 37 37 37 37 37 37 36 36 36 36 36 36 36 36 36 35 35 36 36 36 36 36 36 37 36 37 37 37 37 38 39 40 41 42
55 54 53 53 52 51 50 47 43 39 36 36 36 36 36 37 37 37 37 37 37 37 36 36 36 35 35 35 35 35 35 35 35 35 35 35 35 36 36 36 36 37 37 38 38 39 40 41 42
56 56 56 54 53 50 48 45 40 36 36 36 36 36 36 36 37 37 37 37 36 36 36 36 35 35 35 34 34 34 34 34 34 35 35 35 35 35 35 35 36 36 37 37 38 39 40 42 43
55 56 56 55 52 50 46 43 39 35 34 35 35 35 36 36 36 36 36 35 35 35 35 35 34 34 33 33 33 33 33 33 33 34 34 34 34 35 35 35 35 36 36 37 38 39 41 42 44
Wind_Direction
241 237 235 232 231 230 228 226 225 223 222 221 221 219 219 220 219 219 218 219 220 222 223 226 228 233 240 249 256 261 266 274 281 287 292 296 298 300 303 306 307 307 307 307 307 306 305 304 303
241 238 236 235 232 230 226 225 224 223 222 221 221 220 219 219 220 220 218 218 220 222 224 227 231 237 244 251 256 262 269 276 283 289 293 297 298 301 303 305 306 306 306 306 306 305 304 303 302
242 239 238 236 233 229 225 224 221 222 221 221 221 220 219 219 219 219 220 219 220 223 226 230 234 240 245 250 255 262 270 278 284 289 294 297 299 302 303 305 306 307 306 306 306 305 305 304 303
241 240 238 235 231 227 224 223 222 221 220 220 220 220 220 219 217 217 219 221 222 225 229 233 236 240 244 249 255 263 271 278 284 290 294 296 299 301 303 305 306 307 307 306 306 305 305 304 304
240 239 237 233 229 225 222 220 219 219 218 219 219 219 219 218 217 217 219 222 224 226 230 234 236 239 243 250 259 267 273 279 285 290 293 296 299 302 304 305 306 307 307 306 305 305 304 304 303
238 238 235 231 228 224 220 219 219 218 217 216 217 217 218 217 217 217 219 222 224 227 231 234 235 239 245 253 261 269 276 281 286 290 294 297 300 302 304 304 305 306 306 305 304 303 303 303 303
236 236 233 229 228 225 221 219 219 218 216 215 215 216 216 216 216 216 218 221 223 226 230 234 237 242 248 255 261 269 277 283 288 291 294 297 300 301 302 304 305 305 305 305 303 302 302 302 302
234 233 231 229 229 226 223 220 220 219 216 215 215 216 217 217 216 217 219 221 223 225 229 233 239 244 249 255 263 271 276 283 288 292 295 298 299 301 302 303 304 305 305 305 304 303 302 302 301
233 232 230 230 229 227 225 222 221 221 219 217 215 216 217 217 217 219 220 222 225 227 230 235 241 246 251 258 264 269 276 283 289 293 297 298 300 302 302 303 304 304 305 305 305 304 303 302 301
233 231 230 230 229 228 226 224 221 219 219 217 215 215 216 217 218 220 221 224 227 230 233 238 244 249 254 258 263 270 278 285 289 292 296 298 300 302 303 303 303 304 304 304 304 303 303 302 302
234 231 229 229 229 229 227 225 222 220 218 217 215 215 216 217 219 221 223 225 228 232 236 241 246 251 255 260 265 272 278 284 288 291 294 297 300 301 302 303 303 303 304 303 303 302 302 302 302
234 230 229 228 229 229 228 226 223 221 219 216 216 216 217 219 220 223 225 228 231 235 239 244 249 254 258 263 268 274 280 284 287 290 293 296 298 300 301 302 302 302 302 302 302 302 302 302 302
232 230 229 228 228 228 228 227 224 222 220 219 218 218 219 221 223 225 228 231 234 238 242 246 252 255 259 265 270 276 281 284 287 290 292 295 297 298 299 300 301 301 301 301 302 302 301 301 302
231 230 229 228 228 228 228 227 226 223 223 222 221 220 220 221 224 227 230 234 237 241 244 249 254 258 262 266 271 276 281 284 287 290 292 295 296 298 299 299 300 300 300 300 300 300 301 301 301
230 229 229 228 229 229 229 227 227 226 226 225 224 223 223 224 225 228 232 236 239 243 247 250 255 259 264 268 272 277 280 284 287 289 292 294 295 297 298 298 299 300 300 300 299 300 301 301 301
230 229 229 228 230 229 230 227 228 228 228 227 227 226 226 227 228 230 234 237 241 245 249 252 256 261 265 270 274 278 281 283 286 289 292 293 295 296 296 297 298 299 299 299 299 299 299 300 301
230 230 229 229 230 231 231 228 227 230 229 229 229 229 229 229 230 233 235 239 242 247 250 254 258 262 266 270 274 278 281 283 286 288 290 292 293 294 294 296 297 298 298 298 298 298 299 299 300
231 232 231 230 231 232 232 230 228 230 230 230 230 231 231 232 233 236 238 241 244 248 251 255 260 263 267 271 274 277 280 283 285 287 289 290 292 292 293 295 296 297 297 297 297 298 298 299 300
233 232 231 230 231 232 233 231 230 231 231 231 232 233 234 235 236 239 241 244 246 250 253 257 261 264 268 271 274 277 279 281 284 286 288 289 290 291 293 294 295 296 296 297 297 298 299 299 300
231 231 230 230 231 233 233 232 231 232 232 233 235 236 237 239 240 241 244 247 249 252 256 259 262 264 268 271 274 276 278 280 283 286 287 288 289 291 292 293 295 296 296 297 297 298 298 299 300
229 230 231 232 233 234 235 234 233 233 234 234 236 237 239 241 243 245 247 249 251 255 258 260 262 265 268 271 273 275 277 280 282 284 285 287 288 290 291 293 294 295 296 296 297 298 298 299 300
229 230 232 233 234 234 235 235 232 234 235 235 237 239 241 243 245 247 249 251 253 256 258 260 263 265 267 270 272 274 277 279 281 282 284 286 287 289 291 292 294 295 296 296 297 297 298 299 300
229 229 232 233 235 235 235 237 231 233 235 236 238 240 242 243 245 247 249 252 254 256 258 261 263 265 267 269 271 274 276 278 280 281 283 285 287 289 290 292 293 294 295 296 297 297 298 299 300
227 228 230 232 233 235 233 237 233 231 234 236 238 240 241 243 245 247 249 252 255 257 259 262 264 266 268 270 272 274 276 277 279 280 282 284 287 289 290 292 293 294 295 296 297 297 298 299 300
223 225 227 230 233 235 233 237 235 230 233 235 238 240 241 243 245 248 250 253 255 257 260 262 264 266 267 269 272 274 276 277 278 280 282 284 286 288 290 292 293 294 295 296 296 297 298 299 300
223 225 227 231 235 237 236 237 236 233 232 234 236 239 241 244 245 248 250 252 255 257 259 261 263 265 267 269 272 274 275 276 278 280 282 284 286 288 290 292 293 294 295 296 297 297 298 299 300
223 225 227 231 235 237 236 236 235 233 232 233 235 238 240 243 245 248 250 252 254 256 258 260 262 265 267 269 271 273 275 276 277 279 282 285 287 289 290 292 293 294 295 296 297 297 298 299 300
224 225 225 228 232 235 236 235 234 232 233 234 235 237 240 243 245 247 250 252 254 256 258 259 262 264 267 269 271 272 274 275 277 280 282 285 287 288 290 292 293 294 295 296 297 298 298 299 300
222 223 224 228 232 234 236 236 234 234 234 234 235 237 240 242 245 247 250 252 254 256 257 259 262 264 266 268 270 272 273 275 278 280 283 285 286 288 290 291 293 294 295 296 297 298 298 300 301
225 226 226 228 231 234 237 236 233 232 234 234 235 236 238 241 244 246 249 251 253 255 257 259 261 263 265 267 269 271 273 275 278 280 283 284 286 288 290 292 293 294 295 296 298 298 299 301 301
Height
5827 5828 5828 5829 5831 5832 5834 5837 5839 5842 5845 5847 5850 5853 5855 5857 5860 5864 5863 5863 5865 5867 5868 5869 5870 5871 5872 5872 5873 5873 5873 5874 5874 5873 5873 5873 5873 5872 5872 5872 5871 5870 5870 5869 5868 5867 5866 5865 5864
5825 5825 5826 5827 5828 5830 5833 5834 5836 5839 5842 5844 5847 5849 5852 5854 5856 5858 5859 5861 5863 5864 5866 5867 5868 5869 5870 5870 5871 5871 5872 5872 5872 5871 5871 5871 5871 5870 5870 5869 5869 5868 5867 5866 5865 5864 5863 5862 5861
5821 5822 5824 5824 5826 5828 5830 5831 5833 5835 5838 5841 5844 5846 5849 5851 5853 5855 5857 5859 5861 5862 5864 5865 5866 5867 5868 5868 5869 5869 5869 5869 5869 5869 5869 5869 5868 5868 5867 5867 5866 5865 5864 5863 5863 5861 5860 5859 5858
5818 5819 5821 5823 5824 5826 5827 5829 5830 5832 5835 5838 5841 5843 5846 5849 5851 5853 5855 5856 5858 5860 5861 5863 5864 5865 5865 5866 5867 5867 5867 5867 5867 5867 5867 5866 5866 5865 5865 5864 5863 5862 5861 5860 5859 5858 5857 5856 5854
5814 5816 5818 5820 5821 5823 5824 5826 5827 5830 5832 5835 5838 5840 5843 5845 5848 5850 5852 5854 5856 5858 5859 5860 5862 5862 5863 5864 5864 5865 5865 5865 5865 5865 5864 5864 5863 5863 5862 5861 5860 5859 5858 5857 5856 5854 5853 5852 5850
5810 5812 5815 5817 5818 5820 5821 5823 5825 5827 5830 5832 5835 5837 5840 5842 5845 5848 5850 5852 5854 5855 5857 5858 5859 5860 5861 5862 5862 5862 5862 5862 5862 5862 5862 5861 5860 5860 5859 5858 5857 5856 5855 5853 5852 5851 5849 5848 5846
5806 5808 5810 5813 5815 5817 5819 5820 5822 5824 5827 5829 5832 5834 5837 5839 5842 5845 5847 5849 5851 5853 5854 5856 5857 5858 5859 5859 5860 5860 5860 5860 5860 5859 5859 5858 5857 5857 5856 5855 5854 5852 5851 5849 5848 5847 5845 5843 5841
5800 5803 5806 5809 5811 5814 5815 5817 5819 5821 5824 5826 5829 5832 5834 5837 5839 5842 5844 5846 5848 5850 5852 5853 5854 5855 5856 5856 5857 5857 5857 5857 5857 5856 5856 5855 5854 5853 5852 5851 5850 5848 5847 5845 5844 5842 5840 5839 5837
5794 5798 5802 5805 5807 5810 5812 5814 5816 5819 5821 5823 5826 5829 5832 5834 5836 5839 5841 5844 5845 5847 5849 5850 5851 5852 5853 5853 5854 5854 5854 5854 5853 5853 5852 5852 5851 5850 5848 5847 5845 5844 5842 5840 5839 5837 5835 5833 5831
5787 5792 5798 5800 5802 5805 5807 5810 5812 5815 5818 5820 5823 5826 5828 5831 5833 5836 5838 5840 5842 5844 5846 5847 5848 5849 5850 5850 5850 5851 5851 5850 5850 5849 5849 5848 5847 5845 5844 5843 5841 5839 5837 5835 5834 5832 5830 5828 5825
5781 5787 5791 5793 5796 5799 5802 5805 5808 5811 5814 5817 5820 5822 5825 5827 5830 5832 5834 5837 5839 5841 5842 5844 5845 5846 5846 5847 5847 5847 5847 5847 5846 5845 5845 5844 5842 5841 5839 5838 5836 5834 5832 5830 5828 5826 5824 5822 5819
5774 5779 5783 5787 5789 5793 5796 5799 5803 5806 5810 5813 5816 5818 5821 5824 5826 5828 5831 5833 5835 5837 5838 5840 5841 5842 5843 5843 5843 5843 5843 5842 5842 5841 5840 5839 5838 5836 5834 5833 5831 5829 5827 5825 5822 5820 5818 5815 5813
5765 5771 5775 5779 5782 5786 5790 5793 5797 5801 5805 5808 5811 5814 5817 5820 5823 5825 5827 5829 5831 5833 5834 5836 5837 5838 5839 5839 5839 5839 5839 5838 5837 5837 5836 5834 5833 5831 5829 5827 5825 5823 5821 5819 5816 5814 5811 5809 5806
5757 5762 5766 5770 5774 5779 5783 5787 5791 5796 5799 5802 5806 5810 5813 5816 5818 5821 5823 5825 5827 5829 5830 5832 5833 5833 5834 5834 5835 5834 5834 5833 5833 5832 5830 5829 5827 5826 5824 5822 5819 5817 5815 5812 5810 5807 5804 5802 5799
5746 5752 5757 5762 5767 5772 5776 5780 5786 5790 5792 5797 5801 5805 5808 5811 5813 5816 5818 5820 5822 5824 5826 5827 5828 5829 5829 5829 5830 5829 5829 5828 5827 5826 5825 5823 5822 5820 5818 5815 5813 5811 5808 5806 5803 5800 5797 5795 5792
5735 5741 5748 5755 5759 5764 5769 5775 5781 5783 5786 5791 5795 5799 5802 5806 5809 5811 5813 5816 5817 5819 5820 5822 5823 5823 5824 5824 5824 5824 5823 5822 5821 5820 5819 5817 5815 5813 5811 5809 5807 5804 5801 5799 5796 5793 5790 5788 5785
5725 5732 5740 5748 5751 5756 5760 5768 5773 5775 5779 5784 5788 5792 5796 5800 5803 5806 5808 5810 5812 5813 5815 5816 5817 5818 5818 5818 5818 5818 5817 5816 5815 5814 5812 5811 5809 5807 5805 5802 5800 5797 5795 5792 5789 5786 5783 5780 5778
5718 5725 5732 5738 5743 5747 5751 5759 5764 5767 5771 5777 5781 5785 5790 5794 5797 5800 5802 5804 5806 5808 5809 5810 5811 5812 5812 5812 5812 5811 5810 5810 5809 5807 5806 5804 5802 5800 5798 5795 5793 5790 5788 5785 5782 5779 5776 5773 5770
5709 5715 5722 5729 5733 5737 5742 5748 5754 5759 5763 5769 5774 5778 5783 5787 5790 5793 5796 5798 5800 5802 5803 5804 5805 5805 5805 5806 5805 5805 5804 5803 5802 5800 5799 5797 5795 5793 5791 5788 5786 5783 5780 5777 5775 5772 5769 5766 5763
5697 5703 5711 5718 5722 5727 5732 5738 5744 5750 5756 5762 5766 5771 5775 5779 5783 5786 5789 5791 5793 5795 5796 5797 5798 5798 5799 5799 5798 5798 5797 5796 5795 5793 5791 5789 5788 5785 5783 5781 5778 5776 5773 5770 5767 5764 5761 5758 5755
5686 5695 5703 5709 5713 5716 5722 5727 5735 5742 5747 5753 5758 5763 5767 5772 5775 5778 5781 5783 5785 5787 5789 5790 5791 5791 5791 5791 5791 5790 5790 5789 5787 5785 5784 5782 5780 5778 5776 5773 5771 5768 5765 5763 5760 5757 5754 5751 5747
5678 5688 5694 5698 5702 5706 5711 5716 5727 5732 5738 5745 5750 5755 5759 5764 5767 5770 5773 5775 5778 5780 5781 5782 5783 5784 5784 5783 5783 5783 5782 5781 5780 5778 5776 5774 5772 5770 5768 5765 5763 5760 5758 5755 5752 5749 5746 5743 5739
5672 5679 5683 5687 5691 5695 5701 5705 5717 5723 5730 5737 5743 5747 5751 5755 5759 5762 5765 5767 5769 5771 5773 5774 5775 5776 5776 5776 5776 5775 5775 5773 5772 5770 5769 5767 5765 5763 5760 5758 5755 5753 5750 5747 5744 5741 5738 5735 5731
5660 5666 5671 5675 5678 5683 5693 5696 5705 5716 5723 5729 5734 5738 5742 5746 5750 5753 5756 5759 5761 5763 5765 5766 5767 5768 5768 5768 5768 5767 5766 5765 5764 5762 5760 5759 5757 5755 5752 5750 5748 5745 5742 5740 5737 5734 5730 5727 5723
5647 5655 5660 5663 5666 5674 5685 5686 5697 5710 5716 5721 5726 5730 5733 5737 5741 5745 5747 5750 5753 5755 5756 5758 5759 5759 5759 5759 5759 5759 5758 5757 5756 5754 5753 5751 5749 5747 5744 5742 5740 5737 5735 5732 5729 5726 5722 5719 5715
5639 5646 5652 5657 5662 5669 5675 5679 5692 5702 5708 5712 5717 5721 5725 5729 5733 5736 5739 5742 5744 5746 5748 5749 5750 5751 5751 5751 5751 5751 5750 5749 5747 5746 5744 5743 5741 5739 5737 5734 5732 5729 5727 5724 5721 5718 5714 5711 5707
5629 5635 5644 5650 5653 5659 5664 5673 5684 5693 5699 5704 5709 5713 5716 5720 5724 5727 5730 5733 5735 5737 5739 5740 5741 5742 5743 5743 5742 5742 5741 5740 5739 5738 5736 5734 5733 5731 5729 5726 5724 5721 5719 5716 5713 5710 5706 5702 5699
5619 5628 5633 5638 5643 5649 5656 5665 5677 5686 5692 5697 5701 5704 5708 5712 5715 5718 5721 5724 5726 5728 5730 5731 5732 5733 5734 5734 5734 5733 5733 5732 5731 5730 5728 5726 5725 5723 5721 5718 5716 5714 5711 5708 5705 5701 5698 5694 5690
5609 5615 5621 5629 5635 5643 5650 5662 5672 5678 5683 5688 5692 5696 5699 5703 5706 5709 5712 5715 5717 5719 5721 5722 5724 5724 5725 5725 5725 5725 5724 5724 5723 5722 5720 5719 5717 5715 5713 5711 5708 5706 5703 5700 5697 5693 5689 5685 5681
5600 5607 5614 5621 5628 5636 5644 5657 5663 5670 5675 5679 5684 5688 5691 5695 5698 5701 5704 5706 5708 5710 5712 5714 5715 5716 5716 5717 5717 5716 5716 5716 5715 5714 5712 5711 5709 5707 5705 5703 5700 5698 5695 5692 5688 5685 5681 5677 5672